www.pogodaiklimat.ru

АРХИВ ПОГОДЫ в Краснодаре

Время (UTC), дата Ветер
(напр.,м/с)
 
Видим.   Явления Облачность Т
(С)
Тd
(С)
f
(%)
Тe
(С)
Тes
(С)
Комфортность P
(гПа)
Po
(гПа)
Тmin
(С)
Tmax
(С)
R
(мм)
S
(см)
09 19.07 Ю 2 10 км 8/8 1000 м
[Cu med, cong]
+29.9 +18.3 50 +35 +38 очень
душно
1006.4 1003.1
12 19.07 Ю 2 10 км 8/8 600 м
[Cb cap]
+29.0 +17.8 51 +33 +36 очень
душно
1006.4 1003.0
15 19.07 СВ 1 4000 м слабый ливневой дождь, в посл. час гроза 8/5 600 м
[Cb cap Ac trans Ci ing]
+22.9 +18.5 76 +29 +30 очень
душно
1007.3 1003.9 +30.5 2
18 19.07 В 1 10 км {гроза, ливн. осадки} 4/0
[Ac trans]
+23.6 +19.6 78 +29 +29 душно 1007.4 1003.9
21 19.07 В 1 10 км ясно +21.3 +18.8 86 +26 +26 душно 1007.3 1003.8
00 20.07 штиль 0 10 км ясно +20.0 +18.5 91 +23 +23 комфорт 1006.9 1003.5
03 20.07 штиль 0 10 км ясно +20.2 +18.8 92 +23 +24 комфорт 1007.6 1004.1 +19.8
06 20.07 СВ 3 10 км 3/0
[Ci fib]
+25.6 +16.7 58 +29 +37 душно 1007.4 1004.0
09 20.07 СВ 3 10 км 8/1 1000 м
[Cu hum Ac trans Cc]
+28.5 +16.7 49 +32 +40 душно 1007.4 1004.0
12 20.07 СВ 3 10 км 8/1 1000 м
[Cb cap Cc]
+30.7 +14.5 37 +33 +41 душно 1006.7 1003.4
15 20.07 СВ 1 10 км 10/6 1000 м
[Cb cap Ac und]
+28.5 +15.2 44 +31 +31 душно 1006.7 1003.3 +30.9
18 20.07 СВ 1 10 км 10/3 1000 м
[Sc Ac trans Ci fib]
+25.9 +15.5 53 +29 +29 душно 1007.4 1004.0
21 20.07 СВ 1 10 км 8/0
[Ac trans]
+23.0 +13.0 53 +26 +26 жарко 1007.3 1003.8
00 21.07 СВ 1 10 км 8/0
[Ac trans]
+21.2 +12.7 58 +23 +23 комфорт 1007.2 1003.7
03 21.07 СВ 2 10 км 4/0
[Ac trans]
+20.4 +12.9 62 +23 +24 комфорт 1007.0 1003.5 +20.1
06 21.07 В 2 10 км 3/1 1000 м
[Sc Ci fib]
+25.3 +16.6 59 +29 +37 душно 1007.1 1003.6
09 21.07 СВ 2 10 км 3/3 1000 м
[Cu hum]
+28.6 +17.5 51 +33 +45 очень
душно
1007.2 1003.8
12 21.07 В 3 10 км 3/3 1000 м
[Cu med, cong]
+29.8 +13.8 38 +32 +39 душно 1007.1 1003.7
15 21.07 СВ 2 10 км 3/3 1000 м
[Cu med, cong]
+30.4 +10.7 30 +31 +32 жарко 1007.3 1003.9 +30.8
18 21.07 Ю 1 10 км 3/1 1000 м
[Sc diur, vesp Ci fib]
+25.6 +19.4 69 +31 +31 очень
душно
1008.6 1005.2
21 21.07 ЮЗ 1 10 км ясно +22.3 +18.8 81 +28 +28 душно 1008.8 1005.4
00 22.07 ЮЗ 1 10 км 3/0
[Ac trans]
+20.8 +18.5 87 +26 +26 душно 1009.0 1005.6
03 22.07 ЮЗ 1 10 км 5/3 1000 м
[Sc Ci fib]
+20.4 +18.1 87 +25 +26 комфорт 1009.4 1005.9 +20.0
06 22.07 ЮЗ 1 10 км ясно +27.0 +18.0 58 +32 +43 очень
душно
1009.8 1006.4
09 22.07 Ю 2 10 км 6/0
[Ac trans]
+30.6 +11.6 31 +31 +43 жарко 1009.9 1006.5
12 22.07 Ю 2 10 км 9/6 1000 м
[Cb cap Ac trans]
+29.3 +14.0 39 +31 +34 жарко 1010.1 1006.7
15 22.07 СЗ 1 10 км в посл. час ливневой дождь 9/5 1000 м
[Cb cap Ac trans]
+25.6 +18.4 64 +30 +31 душно 1011.0 1007.5 +31.4 4
18 22.07 Ю 1 10 км {ливн. осадки} 6/0
[Ac trans]
+24.0 +18.2 70 +28 +28 душно 1011.5 1008.0
21 22.07 Ю 1 10 км ясно +22.1 +19.0 83 +28 +28 душно 1011.8 1008.3
00 23.07 штиль 0 10 км ясно +20.3 +19.0 92 +24 +24 комфорт 1011.2 1007.7
03 23.07 Ю 1 10 км ясно +19.5 +18.4 93 +23 +24 комфорт 1011.3 1007.8 +19.4
06 23.07 СВ 1 10 км ясно +26.5 +19.3 65 +32 +43 очень
душно
1011.2 1007.8
09 23.07 В 3 10 км ясно +30.8 +12.7 33 +32 +47 жарко 1010.8 1007.4
12 23.07 СВ 2 10 км ясно +33.2 +9.6 23 +32 +45 жарко 1009.6 1006.2
15 23.07 СВ 2 10 км ясно +32.6 +11.1 27 +32 +35 жарко 1008.6 1005.2 +33.6
18 23.07 С 1 10 км ясно +27.5 +13.9 43 +30 +30 жарко 1008.1 1004.7
21 23.07 СВ 1 10 км ясно +25.6 +13.8 48 +28 +28 жарко 1007.9 1004.5
00 24.07 В 1 10 км ясно +22.5 +14.9 62 +26 +26 жарко 1007.2 1003.7
03 24.07 штиль 0 10 км 3/1 600 м
[Sc Ci]
+20.8 +17.0 79 +24 +25 комфорт 1007.0 1003.5 +20.0
06 24.07 Ю 1 10 км 3/3 1000 м
[Sc]
+27.7 +17.6 54 +32 +40 очень
душно
1006.8 1003.4
09 24.07 СВ 2 10 км 4/3 1000 м
[Cu med, cong Cc]
+32.6 +19.9 47 +39 +51 опасность
солнечного
удара
1006.5 1003.1
12 24.07 Ю 2 10 км 3/1 1000 м
[Cu hum Ci fib]
+34.7 +17.6 36 +38 +49 очень
душно
1005.6 1002.3
15 24.07 СВ 1 10 км ясно +34.2 +16.2 34 +37 +39 очень
душно
1004.8 1001.5 +34.9
18 24.07 СВ 1 10 км 8/3 1000 м
[Sc Ci fib]
+30.1 +15.5 41 +33 +33 душно 1004.6 1001.2
21 24.07 СВ 2 10 км 4/0
[Ci fib]
+27.1 +14.5 46 +30 +30 душно 1004.1 1000.7
00 25.07 штиль 0 10 км 4/0
[Ci fib]
+24.3 +14.6 55 +27 +27 жарко 1004.0 1000.6
03 25.07 В 1 10 км 10/4 1000 м
[Cu Sc Ac trans Cc]
+23.5 +16.8 66 +27 +27 душно 1005.5 1002.1 +22.5
06 25.07 Ю 2 10 км 10/3 1000 м
[Sc Ac As]
+23.3 +19.4 79 +30 +32 очень
душно
1007.5 1004.0
09 25.07 СЗ 1 4000 м гроза, ливневой дождь 10/10 600 м
[Cb cap]
+21.2 +17.9 81 +25 +25 комфорт 1008.8 1005.3
12 25.07 СВ 2 10 км в посл. час ливневой дождь {гроза} 9/6 1000 м
[Sc Ac As]
+24.0 +18.2 70 +28 +31 душно 1010.0 1006.5
15 25.07 СВ 1 10 км 8/4 1000 м
[Sc Ac trans]
+26.8 +16.2 52 +30 +31 душно 1009.6 1006.2 +27.4 2
18 25.07 штиль 0 10 км 3/0
[Ac trans]
+22.4 +18.8 80 +28 +28 душно 1009.9 1006.4
21 25.07 штиль 0 10 км ясно +21.0 +18.2 84 +25 +25 комфорт 1010.0 1006.5
00 26.07 штиль 0 10 км ясно +19.8 +17.3 86 +22 +22 комфорт 1009.9 1006.4
03 26.07 СВ 1 10 км ясно +19.7 +17.3 86 +23 +24 комфорт 1010.4 1006.8 +18.9
06 26.07 СВ 1 10 км ясно +26.8 +19.5 64 +32 +43 очень
душно
1010.5 1007.1

 

Обсудить погоду в Краснодаре на МЕТЕОФОРУМЕ

 

Местоположение метеостанции Краснодар (Краснодарский край, Россия): широта 45.03 долгота 39.15 высота над уровнем моря 34 м.

В архиве по умолчанию представлена погода в Краснодаре за последнюю неделю. Архивные данные за месяц целиком и за предыдущие месяцы, начиная с января 2011 года, Вы можете получить, выбрав интересующий диапазон дат из раскрывающегося списка и нажав кнопку "Ввод!".

Внимание! Время в таблицах - всемирное. Для получения местного времени необходимо прибавить поправку, которая в Краснодаре равна 4 ч.

Ветер - указаны скорость ветра в м/с - средняя за 10 мин, порывы в срок и между сроками (в фигурных скобках) и направление, откуда дует ветер: С - северный, СВ - северо-восточный, В - восточный, ЮВ - юго-восточный, Ю - южный, ЮЗ - юго-западный, З - западный, СЗ - северо-западный.
Видимость - горизонтальная дальность видимости в метрах или километрах. При видимости от 1 до 10 км при отсутствии осадков обычно наблюдается дымка, при ухудшении видимости до 1 км и менее - туман. В сухую погоду видимость может ухудшаться дымом, пылью или мглою.
Явления - указаны атсосферные явления, наблюдавшиеся в срок или в последний час перед сроком; фигурными скобками обозначены явления, наблюдавшиеся между сроками (за 1-3 часа до срока); квадратными скобками обозначены град или гололедные отложения с указанием их диаметра в мм.
Облачность - указаны через наклонную черту общая и нижняя облачность в баллах и высота нижней границы облаков в метрах; квадратными скобками обозначены формы облаков: Ci - перистые, Cs - перисто-слоистые, Cc - перисто-кучевые, Ac - высококучевые, As - высокослоистые, Sc - слоисто-кучевые, Ns - слоисто-дождевые, Cu - кучевые, Cb - кучево-дождевые. Подробнее классификацию облаков см. в Атласе облаков (PDF).
T - Температура воздуха - температура, измеренная на высоте 2 м над землей.
Td - Температура точки росы - температура, при понижении до которой содержащийся в воздухе водяной пар достигнет насыщения.
f - Относительная влажность воздуха - влажноcть воздуха, измеренная на высоте 2 м над землей.
Te - Эффективная температура - температура, которую ощущает одетый по сезону человек в тени. Характеристика душности погоды. При расчете учитывается влияние влажности воздуха и скорости ветра на теплоощущения человека.
Tes - Эффективная температура на солнце - температура, которую ощущает человек, с поправкой на солнечный нагрев. Характеристика знойности погоды. Зависит от высоты солнца над горизонтом, облачности и скорости ветра. Ночью, в пасмурную погоду, а также при ветре 12 м/с и более поправка равна нулю.
P - Атмосферное давление - приведенное к уровню моря атмосферное давление.
Po - Атмосферное давление - измеренное на уровне метеостанции атмосферное давление.
Tmin - Минимальная температура - минимум температуры воздуха на высоте 2 м над землей.
Tmax - Максимальная температура - максимум температуры воздуха на высоте 2 м над землей.
R - Количество осадков - Количество выпавших осадков, мм.
S - Снежный покров - Высота снежного покрова, см.